﻿測定場所 (Monitoring sites),日付 (Measurement date),時間 (Measurement time),線量率 最大値 (max) μGy/h,線量率 最小値 (min) μGy/h,線量率 平均値 (average) μGy/h,
江戸川 (Edogawa),2014-08-03,23:01～24:00,0.0797,0.0718,0.0753,
江戸川 (Edogawa),2014-08-03,22:01～23:00,0.0832,0.0724,0.0754,
江戸川 (Edogawa),2014-08-03,21:01～22:00,0.0816,0.0719,0.0756,
江戸川 (Edogawa),2014-08-03,20:01～21:00,0.0819,0.0711,0.0751,
江戸川 (Edogawa),2014-08-03,19:01～20:00,0.0818,0.0715,0.0749,
江戸川 (Edogawa),2014-08-03,18:01～19:00,0.0802,0.0712,0.0753,
江戸川 (Edogawa),2014-08-03,17:01～18:00,0.0804,0.0712,0.0756,
江戸川 (Edogawa),2014-08-03,16:01～17:00,0.0833,0.0725,0.0762,
江戸川 (Edogawa),2014-08-03,15:01～16:00,0.0804,0.0697,0.0752,
江戸川 (Edogawa),2014-08-03,14:01～15:00,0.0812,0.0704,0.0751,
江戸川 (Edogawa),2014-08-03,13:01～14:00,0.0802,0.0711,0.0751,
江戸川 (Edogawa),2014-08-03,12:01～13:00,0.0808,0.0706,0.0755,
江戸川 (Edogawa),2014-08-03,11:01～12:00,0.0824,0.0725,0.0767,
江戸川 (Edogawa),2014-08-03,10:01～11:00,0.0824,0.0728,0.0769,
江戸川 (Edogawa),2014-08-03,09:01～10:00,0.0829,0.0721,0.0765,
江戸川 (Edogawa),2014-08-03,08:01～09:00,0.0806,0.0721,0.0760,
江戸川 (Edogawa),2014-08-03,07:01～08:00,0.0809,0.0719,0.0756,
江戸川 (Edogawa),2014-08-03,06:01～07:00,0.0831,0.0723,0.0758,
江戸川 (Edogawa),2014-08-03,05:01～06:00,0.0800,0.0716,0.0751,
江戸川 (Edogawa),2014-08-03,04:01～05:00,0.0817,0.0722,0.0759,
江戸川 (Edogawa),2014-08-03,03:01～04:00,0.0809,0.0706,0.0751,
江戸川 (Edogawa),2014-08-03,02:01～03:00,0.0807,0.0718,0.0751,
江戸川 (Edogawa),2014-08-03,01:01～02:00,0.0817,0.0716,0.0758,
江戸川 (Edogawa),2014-08-03,00:01～01:00,0.0805,0.0722,0.0754,
江戸川 (Edogawa),2014-08-02,23:01～24:00,0.0808,0.0718,0.0758,
江戸川 (Edogawa),2014-08-02,22:01～23:00,0.0826,0.0709,0.0754,
江戸川 (Edogawa),2014-08-02,21:01～22:00,0.0780,0.0676,0.0725,
江戸川 (Edogawa),2014-08-02,20:01～21:00,0.0736,0.0654,0.0690,
江戸川 (Edogawa),2014-08-02,19:01～20:00,0.0724,0.0644,0.0675,
江戸川 (Edogawa),2014-08-02,18:01～19:00,0.0792,0.0683,0.0737,
江戸川 (Edogawa),2014-08-02,17:01～18:00,0.0816,0.0713,0.0758,
江戸川 (Edogawa),2014-08-02,16:01～17:00,0.0808,0.0714,0.0750,
江戸川 (Edogawa),2014-08-02,15:01～16:00,0.0809,0.0701,0.0748,
江戸川 (Edogawa),2014-08-02,14:01～15:00,0.0813,0.0723,0.0758,
江戸川 (Edogawa),2014-08-02,13:01～14:00,0.0812,0.0717,0.0753,
江戸川 (Edogawa),2014-08-02,12:01～13:00,0.0824,0.0717,0.0760,
江戸川 (Edogawa),2014-08-02,11:01～12:00,0.0836,0.0708,0.0764,
江戸川 (Edogawa),2014-08-02,10:01～11:00,0.0820,0.0726,0.0760,
江戸川 (Edogawa),2014-08-02,09:01～10:00,0.0829,0.0716,0.0766,
江戸川 (Edogawa),2014-08-02,08:01～09:00,0.0824,0.0715,0.0760,
江戸川 (Edogawa),2014-08-02,07:01～08:00,0.0819,0.0722,0.0762,
江戸川 (Edogawa),2014-08-02,06:01～07:00,0.0812,0.0714,0.0755,
江戸川 (Edogawa),2014-08-02,05:01～06:00,0.0830,0.0719,0.0760,
江戸川 (Edogawa),2014-08-02,04:01～05:00,0.0813,0.0704,0.0757,
江戸川 (Edogawa),2014-08-02,03:01～04:00,0.0809,0.0726,0.0757,
江戸川 (Edogawa),2014-08-02,02:01～03:00,0.0817,0.0721,0.0764,
江戸川 (Edogawa),2014-08-02,01:01～02:00,0.0815,0.0717,0.0756,
江戸川 (Edogawa),2014-08-02,00:01～01:00,0.0857,0.0722,0.0775,
江戸川 (Edogawa),2014-08-01,23:01～24:00,0.0848,0.0725,0.0786,
江戸川 (Edogawa),2014-08-01,22:01～23:00,0.0880,0.0769,0.0830,
江戸川 (Edogawa),2014-08-01,21:01～22:00,0.0846,0.0722,0.0773,
江戸川 (Edogawa),2014-08-01,20:01～21:00,0.0814,0.0714,0.0751,
江戸川 (Edogawa),2014-08-01,19:01～20:00,0.0810,0.0722,0.0748,
江戸川 (Edogawa),2014-08-01,18:01～19:00,0.0830,0.0719,0.0752,
江戸川 (Edogawa),2014-08-01,17:01～18:00,0.0819,0.0712,0.0748,
江戸川 (Edogawa),2014-08-01,16:01～17:00,0.0802,0.0717,0.0752,
江戸川 (Edogawa),2014-08-01,15:01～16:00,0.0818,0.0714,0.0758,
江戸川 (Edogawa),2014-08-01,14:01～15:00,0.0794,0.0711,0.0757,
江戸川 (Edogawa),2014-08-01,13:01～14:00,0.0820,0.0720,0.0761,
江戸川 (Edogawa),2014-08-01,12:01～13:00,0.0812,0.0718,0.0759,
江戸川 (Edogawa),2014-08-01,11:01～12:00,0.0815,0.0712,0.0753,
江戸川 (Edogawa),2014-08-01,10:01～11:00,0.0815,0.0705,0.0755,
江戸川 (Edogawa),2014-08-01,09:01～10:00,0.0803,0.0720,0.0748,
江戸川 (Edogawa),2014-08-01,08:01～09:00,0.0798,0.0706,0.0749,
江戸川 (Edogawa),2014-08-01,07:01～08:00,0.0799,0.0717,0.0750,
江戸川 (Edogawa),2014-08-01,06:01～07:00,0.0798,0.0718,0.0750,
江戸川 (Edogawa),2014-08-01,05:01～06:00,0.0810,0.0708,0.0748,
江戸川 (Edogawa),2014-08-01,04:01～05:00,0.0790,0.0709,0.0747,
江戸川 (Edogawa),2014-08-01,03:01～04:00,0.0831,0.0712,0.0753,
江戸川 (Edogawa),2014-08-01,02:01～03:00,0.0822,0.0717,0.0746,
江戸川 (Edogawa),2014-08-01,01:01～02:00,0.0806,0.0714,0.0750,
江戸川 (Edogawa),2014-08-01,00:01～01:00,0.0821,0.0691,0.0752,
江戸川 (Edogawa),2014-07-31,23:01～24:00,0.0822,0.0718,0.0751,
江戸川 (Edogawa),2014-07-31,22:01～23:00,0.0811,0.0718,0.0747,
江戸川 (Edogawa),2014-07-31,21:01～22:00,0.0812,0.0712,0.0752,
江戸川 (Edogawa),2014-07-31,20:01～21:00,0.0815,0.0715,0.0753,
江戸川 (Edogawa),2014-07-31,19:01～20:00,0.0805,0.0711,0.0750,
江戸川 (Edogawa),2014-07-31,18:01～19:00,0.0806,0.0710,0.0750,
江戸川 (Edogawa),2014-07-31,17:01～18:00,0.0820,0.0710,0.0752,
江戸川 (Edogawa),2014-07-31,16:01～17:00,0.0820,0.0718,0.0752,
江戸川 (Edogawa),2014-07-31,15:01～16:00,0.0789,0.0720,0.0747,
江戸川 (Edogawa),2014-07-31,14:01～15:00,0.0824,0.0717,0.0751,
江戸川 (Edogawa),2014-07-31,13:01～14:00,0.0803,0.0723,0.0751,
江戸川 (Edogawa),2014-07-31,12:01～13:00,0.0804,0.0708,0.0750,
江戸川 (Edogawa),2014-07-31,11:01～12:00,0.0810,0.0711,0.0755,
江戸川 (Edogawa),2014-07-31,10:01～11:00,0.0818,0.0725,0.0760,
江戸川 (Edogawa),2014-07-31,09:01～10:00,0.0841,0.0720,0.0752,
江戸川 (Edogawa),2014-07-31,08:01～09:00,0.0805,0.0709,0.0750,
江戸川 (Edogawa),2014-07-31,07:01～08:00,0.0808,0.0715,0.0748,
江戸川 (Edogawa),2014-07-31,06:01～07:00,0.0836,0.0706,0.0756,
江戸川 (Edogawa),2014-07-31,05:01～06:00,0.0813,0.0716,0.0752,
江戸川 (Edogawa),2014-07-31,04:01～05:00,0.0812,0.0723,0.0752,
江戸川 (Edogawa),2014-07-31,03:01～04:00,0.0816,0.0707,0.0751,
江戸川 (Edogawa),2014-07-31,02:01～03:00,0.0789,0.0706,0.0750,
江戸川 (Edogawa),2014-07-31,01:01～02:00,0.0793,0.0722,0.0750,
江戸川 (Edogawa),2014-07-31,00:01～01:00,0.0844,0.0711,0.0757,
江戸川 (Edogawa),2014-07-30,23:01～24:00,0.0797,0.0717,0.0751,
江戸川 (Edogawa),2014-07-30,22:01～23:00,0.0815,0.0718,0.0747,
江戸川 (Edogawa),2014-07-30,21:01～22:00,0.0825,0.0710,0.0757,
江戸川 (Edogawa),2014-07-30,20:01～21:00,0.0795,0.0714,0.0752,
江戸川 (Edogawa),2014-07-30,19:01～20:00,0.0833,0.0721,0.0751,
江戸川 (Edogawa),2014-07-30,18:01～19:00,0.0808,0.0707,0.0751,
江戸川 (Edogawa),2014-07-30,17:01～18:00,0.0811,0.0715,0.0753,
江戸川 (Edogawa),2014-07-30,16:01～17:00,0.0804,0.0723,0.0756,
江戸川 (Edogawa),2014-07-30,15:01～16:00,0.0819,0.0723,0.0757,
江戸川 (Edogawa),2014-07-30,14:01～15:00,0.0829,0.0724,0.0762,
江戸川 (Edogawa),2014-07-30,13:01～14:00,0.0827,0.0721,0.0755,
江戸川 (Edogawa),2014-07-30,12:01～13:00,0.0801,0.0713,0.0749,
江戸川 (Edogawa),2014-07-30,11:01～12:00,0.0813,0.0710,0.0747,
江戸川 (Edogawa),2014-07-30,10:01～11:00,0.0801,0.0726,0.0755,
江戸川 (Edogawa),2014-07-30,09:01～10:00,0.0802,0.0715,0.0748,
江戸川 (Edogawa),2014-07-30,08:01～09:00,0.0813,0.0709,0.0751,
江戸川 (Edogawa),2014-07-30,07:01～08:00,0.0814,0.0716,0.0748,
江戸川 (Edogawa),2014-07-30,06:01～07:00,0.0809,0.0718,0.0749,
江戸川 (Edogawa),2014-07-30,05:01～06:00,0.0834,0.0695,0.0750,
江戸川 (Edogawa),2014-07-30,04:01～05:00,0.0793,0.0717,0.0750,
江戸川 (Edogawa),2014-07-30,03:01～04:00,0.0807,0.0711,0.0748,
江戸川 (Edogawa),2014-07-30,02:01～03:00,0.0798,0.0722,0.0747,
江戸川 (Edogawa),2014-07-30,01:01～02:00,0.0804,0.0715,0.0748,
江戸川 (Edogawa),2014-07-30,00:01～01:00,0.0802,0.0718,0.0753,
江戸川 (Edogawa),2014-07-29,23:01～24:00,0.0834,0.0709,0.0749,
江戸川 (Edogawa),2014-07-29,22:01～23:00,0.0785,0.0706,0.0748,
江戸川 (Edogawa),2014-07-29,21:01～22:00,0.0803,0.0712,0.0750,
江戸川 (Edogawa),2014-07-29,20:01～21:00,0.0801,0.0712,0.0749,
江戸川 (Edogawa),2014-07-29,19:01～20:00,0.0792,0.0715,0.0746,
江戸川 (Edogawa),2014-07-29,18:01～19:00,0.0816,0.0697,0.0747,
江戸川 (Edogawa),2014-07-29,17:01～18:00,0.0809,0.0722,0.0753,
江戸川 (Edogawa),2014-07-29,16:01～17:00,0.0808,0.0719,0.0748,
江戸川 (Edogawa),2014-07-29,15:01～16:00,0.0796,0.0714,0.0748,
江戸川 (Edogawa),2014-07-29,14:01～15:00,0.0808,0.0716,0.0752,
江戸川 (Edogawa),2014-07-29,13:01～14:00,0.0809,0.0711,0.0751,
江戸川 (Edogawa),2014-07-29,12:01～13:00,0.0812,0.0710,0.0751,
江戸川 (Edogawa),2014-07-29,11:01～12:00,0.0835,0.0705,0.0745,
江戸川 (Edogawa),2014-07-29,10:01～11:00,0.0798,0.0696,0.0742,
江戸川 (Edogawa),2014-07-29,09:01～10:00,0.0814,0.0697,0.0745,
江戸川 (Edogawa),2014-07-29,08:01～09:00,0.0823,0.0713,0.0749,
江戸川 (Edogawa),2014-07-29,07:01～08:00,0.0811,0.0704,0.0749,
江戸川 (Edogawa),2014-07-29,06:01～07:00,0.0802,0.0712,0.0750,
江戸川 (Edogawa),2014-07-29,05:01～06:00,0.0809,0.0722,0.0752,
江戸川 (Edogawa),2014-07-29,04:01～05:00,0.0789,0.0720,0.0747,
江戸川 (Edogawa),2014-07-29,03:01～04:00,0.0794,0.0709,0.0747,
江戸川 (Edogawa),2014-07-29,02:01～03:00,0.0819,0.0704,0.0749,
江戸川 (Edogawa),2014-07-29,01:01～02:00,0.0812,0.0705,0.0747,
江戸川 (Edogawa),2014-07-29,00:01～01:00,0.0804,0.0708,0.0749,
江戸川 (Edogawa),2014-07-28,23:01～24:00,0.0804,0.0708,0.0749,
江戸川 (Edogawa),2014-07-28,22:01～23:00,0.0816,0.0721,0.0749,
江戸川 (Edogawa),2014-07-28,21:01～22:00,0.0788,0.0712,0.0746,
江戸川 (Edogawa),2014-07-28,20:01～21:00,0.0810,0.0723,0.0752,
江戸川 (Edogawa),2014-07-28,19:01～20:00,0.0830,0.0721,0.0758,
江戸川 (Edogawa),2014-07-28,18:01～19:00,0.0793,0.0710,0.0745,
江戸川 (Edogawa),2014-07-28,17:01～18:00,0.0815,0.0706,0.0746,
江戸川 (Edogawa),2014-07-28,16:01～17:00,0.0813,0.0700,0.0743,
江戸川 (Edogawa),2014-07-28,15:01～16:00,0.0792,0.0714,0.0752,
江戸川 (Edogawa),2014-07-28,14:01～15:00,0.0814,0.0711,0.0751,
江戸川 (Edogawa),2014-07-28,13:01～14:00,0.0808,0.0713,0.0746,
江戸川 (Edogawa),2014-07-28,12:01～13:00,0.0801,0.0714,0.0746,
江戸川 (Edogawa),2014-07-28,11:01～12:00,0.0800,0.0708,0.0747,
江戸川 (Edogawa),2014-07-28,10:01～11:00,0.0800,0.0703,0.0741,
江戸川 (Edogawa),2014-07-28,09:01～10:00,0.0797,0.0713,0.0745,
江戸川 (Edogawa),2014-07-28,08:01～09:00,0.0795,0.0719,0.0746,
江戸川 (Edogawa),2014-07-28,07:01～08:00,0.0803,0.0712,0.0743,
江戸川 (Edogawa),2014-07-28,06:01～07:00,0.0801,0.0700,0.0742,
江戸川 (Edogawa),2014-07-28,05:01～06:00,0.0775,0.0707,0.0740,
江戸川 (Edogawa),2014-07-28,04:01～05:00,0.0819,0.0710,0.0749,
江戸川 (Edogawa),2014-07-28,03:01～04:00,0.0793,0.0714,0.0745,
江戸川 (Edogawa),2014-07-28,02:01～03:00,0.0791,0.0702,0.0742,
江戸川 (Edogawa),2014-07-28,01:01～02:00,0.0790,0.0684,0.0745,
江戸川 (Edogawa),2014-07-28,00:01～01:00,0.0806,0.0716,0.0744,
